Regional Weather Roundup
Issued by NWS

Home | Current Version | Previous Version | Text Only | Print | Product List | Glossary Off
Versions: 1 2 3 4 5 6 7 8 9 10 11 12 13 14 15 16 17 18 19 20 21 22 23 24 25 26 27 28 29 30 31 32 33 34 35 36 37 38 39 40 41 42 43 44 45 46 47 48 49 50

000
ASUS44 KMEG 012300
RWRTN
TENNESSEE HOURLY STATE WEATHER ROUNDUP
NATIONAL WEATHER SERVICE MEMPHIS TN
600 PM CDT TUE SEP 01 2015

TNZ002-004-019-021-049-052-054-088>092-020000-
WEST TENNESSEE

CITY           SKY/WX    TMP DP  RH WIND       PRES   REMARKS
MEMPHIS INTL   CLOUDY    88  67  49 SE6       30.05S HX  91
NWS MEMPHIS      N/A     86 N/A N/A MISG        N/A
JACKSON        PTSUNNY   84  73  69 CALM      30.07S HX  90
DYERSBURG      MOSUNNY   86  72  62 E3        30.07S HX  92
UNION CITY     PTSUNNY   90  70  51 CALM      30.06S HX  95
PARIS          SUNNY     84  66  54 NE6       30.09S
LEXINGTON      MOSUNNY   84  70  61 CALM      30.07S
$$

TNZ008-025-027-028-033-062-065-066-020000-
NORTH MIDDLE TENNESSEE

CITY           SKY/WX    TMP DP  RH WIND       PRES   REMARKS
NASHVILLE      PTSUNNY   88  63  43 E3        30.08S
CLARKSVILLE    PTSUNNY   86  67  52 W7        30.07S
COOKEVILLE     SUNNY     84  72  65 CALM      30.10F
CROSSVILLE     PTSUNNY   80  69  69 CALM      30.15F
$$

TNZ061-075-076-078-094-096-097-020000-
SOUTH MIDDLE TENNESSEE

CITY           SKY/WX    TMP DP  RH WIND       PRES   REMARKS
FAYETTEVILLE     N/A     82  64  54 CALM      30.10R
TULLAHOMA      SUNNY     82  66  57 N5        30.11S
WINCHESTER     SUNNY     84  70  61 NE3       30.09S
MCMINNVILLE    PTSUNNY   84  70  61 N3        30.11S
COLUMBIA       SUNNY     86  70  58 SE3       30.08R HX  90
SHELBYVILLE    SUNNY     86  70  58 E3        30.10S HX  90
$$

TNZ017-018-042-046-047-020000-
NORTHEAST TENNESSEE

CITY           SKY/WX    TMP DP  RH WIND       PRES   REMARKS
TRI CITIES     PTSUNNY   83  66  56 N6        30.12R
ELIZABETHTON   CLEAR     75  66  73 CALM      30.13R
$$

TNZ012-013-036-069-073-074-020000-
CENTRAL EAST TENNESSEE

CITY           SKY/WX    TMP DP  RH WIND       PRES   REMARKS
KNOXVILLE      PTSUNNY   87  62  43 N5        30.09S
OAK RIDGE      MOSUNNY   87  65  47 CALM      30.10F
GATLINBURG       N/A     88  63  42 N5        30.08S
$$

TNZ083-085-099-020000-
SOUTHEAST TENNESSEE

CITY           SKY/WX    TMP DP  RH WIND       PRES   REMARKS
CHATTANOOGA    MOSUNNY   87  66  49 NE7       30.07F
$$

SKY/WX REPORTED AS FAIR MEANS FEW OR NO CLOUDS BELOW
12 THOUSAND FEET.




USA.gov is the U.S. government's official web portal to all federal, state and local government web resources and services.